Find Local Weather

World > North America > United States > Florida

Miami, Florida Regional Weather

Lat: 25.77N, Lon: 80.2W
Wx Zone: FLZ074
Warning FLW WEATHER ALERT - (More Info. Click Here) Warning
Feedback
Expires:201810211100;;512947
ASUS42 KTBW 211017
RWRFL 
FLORIDA REGIONAL WEATHER ROUNDUP
NATIONAL WEATHER SERVICE TAMPA BAY RUSKIN FL
600 AM EDT SUN OCT 21 2018

NOTE: "FAIR" INDICATES FEW OR NO CLOUDS BELOW 12,000 FEET WITH NO
SIGNIFICANT WEATHER AND/OR OBSTRUCTIONS TO VISIBILITY.


FLZ067-068-071>074-168-172>174-211100-
SOUTHEAST FLORIDA 
  
CITY           SKY/WX    TMP DP  RH WIND       PRES   REMARKS
W PALM BEACH   FAIR      74  74 100 NW8       29.99R                  
FT LAUDER-EXEC FAIR      77  75  93 NW7       29.98R                  
FT LAUDERDALE  FAIR      78  76  93 NW6       29.98R                  
POMPANO BEACH  FAIR      77  74  90 N7        29.99R                  
PEMBROKE PINES FAIR      77  74  90 NW5       30.00R                  
OPA LOCKA      FAIR      76  74  93 NW6       29.99R                  
MIAMI          FAIR      75  74  96 W3        29.99R                  
WEST KENDALL   FAIR      75  73  93 NW6       29.99R                  
HOMESTEAD      FAIR      75  72  89 NW7       29.98R                  

STATION/POSITION SKY/WX   TEMP    WIND        PRES    WAVE   SWELL
                          AIR SEA DIR/SP/G            HT/PER HT/PER
                          (F)     (DEG/KT/KT) (MB)    (FT/S) (FT/S)
PORT EVERGLADES            78     320/  6/  9 1014.9R
VIRGINIA KEY               78 85  300/  3/  7 1014.7R
LAKE WORTH                 77 83  310/  6/  7 1016.2R
FOWEY ROCKS                78 81  330/ 14/ 15 1015.9R
SETTLEMENT POINT           81     290/ 13/ 15 1015.1R

$$

  

SKY/WX - Weather  TMP - Temperature  DP - Dew Point  RH - Relative Humidity
WIND - Wind Direction/Speed PRES - Barometric Pressure